Miscellaneous Local Product
Issued by NWS North Platte, NE

Home | Current Version | Previous Version | Text Only | Print | Product List | Glossary On
Versions: 1 2 3 4 5 6 7 8 9 10 11 12 13 14 15 16 17 18 19 20 21 22 23 24 25 26 27 28 29 30 31 32 33 34 35 36 37 38 39 40 41 42 43 44 45 46 47 48 49 50
000
AXUS43 KLBF 260810
MISLBF


WESTERN AND NORTH CENTRAL NEBRASKA HOURLY WEATHER ROUNDUP
NATIONAL WEATHER SERVICE NORTH PLATTE NE
300 AM CDT THU MAY 26 2016

NOTE: "FAIR" INDICATES FEW OR NO CLOUDS BELOW 12,000 FEET WITH NO
SIGNIFICANT WEATHER AND/OR OBSTRUCTIONS TO VISIBILITY.

NOTE: STATIONS NOT REPORTING VARIABLES SUCH AS SKY/WEATHER OR
PRESSURE ARE PROVIDED BY RAWS AND APRS NETWORKS AND ARE NOT UNDER
NATIONAL WEATHER SERVICE QUALITY CONTROL.

...OBSERVATIONS IN AND NEAR THE EASTERN PANHANDLE OF NEBRASKA...

CITY           SKY/WX    TMP DP  RH WIND       PRES   REMARKS
PINE RIDGE     CLEAR     42  39  89 W3        29.90S
CHADRON        CLEAR     43  39  86 S3        29.90F
ALLIANCE       CLOUDY    44  41  89 SW6       29.92R
SIDNEY         CLOUDY    48  44  86 W3        29.97R
CRESCENT LAKE    N/A     52  44  73 S6          N/A
BIG SPRINGS      N/A     52  49  90 CALM        N/A
$$

...OBSERVATIONS IN NORTHERN NEBRASKA AND FAR SOUTHERN SOUTH DAKOTA...

CITY           SKY/WX    TMP DP  RH WIND       PRES   REMARKS
WINNER         FAIR      53  49  86 SW6       29.87F
VALENTINE      PTCLDY    50  46  86 CALM      29.88F
THEDFORD       CLOUDY    55  49  80 E7        29.89F
AINSWORTH      CLEAR     52  48  86 CALM      29.89R
O`NEILL        PTCLDY    56  51  82 CALM      29.88F
ORD            CLEAR     56  52  86 NW7       29.87S
BROKEN BOW     MOCLDY    57  50  77 VRB3      29.84F
BUTTE            N/A     56  52  87 NW3         N/A
CHAMBERS         N/A     56  51  83 CALM        N/A
EWING            N/A     59  53  80 W3          N/A
$$

...OBSERVATIONS IN SOUTHWEST NEBRASKA AND FAR NORTHEAST COLORADO...

CITY           SKY/WX    TMP DP  RH WIND       PRES   REMARKS
WRAY           FAIR      48  48 100 CALM      29.95S
IMPERIAL       CLEAR     52  48  86 W5        29.92S
OGALLALA       CLOUDY    53  50  91 W6        29.91S
NORTH PLATTE   CLEAR     50  48  93 CALM      29.87F
MCCOOK         CLEAR     52  49  89 W7        29.89R
LEXINGTON      CLEAR     55  50  84 N7        29.86F
PAXTON           N/A     54  51  90 CALM        N/A
STAPLETON        N/A     50  47  90 CALM        N/A
GOTHENBURG       N/A     57  50  77 NW3         N/A
CALLAWAY         N/A     56  51  85 NW12        N/A
$$

...OBSERVATIONS IN CENTRAL LINCOLN COUNTY AREA...

CITY           SKY/WX    TMP DP  RH WIND       PRES   REMARKS
N.P. AIRPORT   CLEAR     50  48  93 CALM      29.87F
N.P. DOWNTOWN    N/A     53  51  94 CALM        N/A
N.P. SOUTHEAST   N/A     54  52  93 CALM        N/A
N.P. HILLCREST   N/A     54  49  83 N5          N/A
$$

...SOME OBSERVATIONS FROM AROUND THE REGION...

CITY           SKY/WX    TMP DP  RH WIND       PRES   REMARKS
DENVER         PTCLDY    49  41  74 CALM      30.02S
LARAMIE        CLEAR     33  29  85 W5        30.07F WCI  29
CHEYENNE       CLEAR     41  33  73 W9        30.04S
SCOTTSBLUFF    CLEAR     46  42  86 NW5       29.94S
RAPID CITY     CLEAR     46  43  89 CALM      29.90S
BISMARCK       CLEAR     49  47  93 SW3       29.81R
PIERRE         CLEAR     53  48  83 W5        29.84R
SIOUX FALLS    CLOUDY    59  56  89 W3        29.80S
OMAHA          CLOUDY    64  58  80 E13G23    29.88R
GRAND ISLAND   CLEAR     57  53  86 N7        29.85R
KANSAS CITY    CLOUDY    71  58  63 SW3       29.83F
WICHITA        PTCLDY    70  69  97 S6        29.83F FOG
OKLAHOMA CITY  CLOUDY    77  73  87 S18G24    29.86F
DALLAS         MOCLDY    78  72  81 S12       29.91R
AMARILLO       CLEAR     56  34  43 SW10      29.89F
DODGE CITY     PTCLDY    66  66 100 E10       29.84F FOG
HAYS           CLEAR     52  48  87 E9        29.85F
GOODLAND       PTCLDY    49  47  93 N6        29.92F
$$




USA.gov is the U.S. government's official web portal to all federal, state and local government web resources and services.